GW5591 Weather Reports


time (UTC)temp
C
wind
direction
speed
KPH
gust
KPH
rain 1hr
cm
rain 24hr
cm
rain mn
cm
humidity
%
barometer
mb
20260507211450 12 135 4.8 4.8 0.00 0.03 0.03 44 1009.9
20260507210947 12 5 3.2 4.8 0.00 0.03 0.03 45 1009.9
20260507210444 13 137 0.0 9.7 0.00 0.03 0.03 43 1009.8
20260507205941 12 55 0.0 1.6 0.00 0.03 0.03 43 1009.9
20260507205438 13 151 1.6 4.8 0.00 0.03 0.03 43 1009.9
20260507204934 13 148 1.6 3.2 0.00 0.03 0.03 44 1009.8
20260507204430 12 192 0.0 4.8 0.00 0.03 0.03 45 1010.0
20260507203928 12 151 3.2 4.8 0.00 0.03 0.03 48 1009.9
20260507203426 12 140 3.2 3.2 0.00 0.03 0.03 46 1010.0
20260507202922 12 74 1.6 9.7 0.00 0.03 0.03 43 1009.9
20260507202419 12 136 0.0 4.8 0.00 0.03 0.03 47 1009.9
20260507201914 12 119 1.6 1.6 0.00 0.03 0.03 47 1009.9
20260507201410 12 189 1.6 11.3 0.00 0.03 0.03 44 1010.0
20260507200907 12 222 1.6 3.2 0.00 0.03 0.03 46 1010.3
20260507200402 12 26 3.2 3.2 0.00 0.03 0.03 46 1010.3
20260507195858 12 105 4.8 4.8 0.00 0.03 0.03 46 1010.2
20260507195356 13 114 1.6 1.6 0.00 0.03 0.03 46 1010.4
20260507194853 13 89 3.2 4.8 0.00 0.03 0.03 43 1010.4
20260507194349 12 152 3.2 4.8 0.00 0.03 0.03 45 1010.3
20260507193846 12 77 0.0 3.2 0.00 0.03 0.03 44 1010.5
20260507193343 12 100 1.6 6.4 0.00 0.03 0.03 44 1010.3
20260507192839 13 198 3.2 3.2 0.00 0.03 0.03 43 1010.6
20260507192336 12 151 3.2 6.4 0.00 0.03 0.03 46 1010.3
20260507191832 12 245 4.8 9.7 0.00 0.03 0.03 45 1010.5
20260507191328 13 109 3.2 6.4 0.00 0.03 0.03 43 1010.5
20260507190825 12 59 0.0 9.7 0.00 0.03 0.03 45 1010.4
20260507190324 13 159 4.8 6.4 0.00 0.03 0.03 43 1010.3
20260507185822 13 164 3.2 4.8 0.00 0.03 0.03 44 1010.5
20260507185319 13 145 4.8 4.8 0.00 0.03 0.03 42 1010.5
20260507184816 14 294 3.2 3.2 0.00 0.03 0.03 43 1010.4
20260507184314 14 267 3.2 4.8 0.00 0.03 0.03 46 1010.6
20260507183810 13 132 0.0 6.4 0.00 0.03 0.03 44 1010.8
20260507183308 13 114 4.8 9.7 0.00 0.03 0.03 41 1010.8
20260507182805 13 107 1.6 3.2 0.00 0.03 0.03 44 1010.7
20260507182300 13 20 1.6 6.4 0.00 0.03 0.03 40 1010.5
20260507181756 13 100 4.8 12.9 0.00 0.03 0.03 41 1010.6
20260507181253 14 91 4.8 6.4 0.00 0.03 0.03 41 1010.3
20260507180750 14 301 1.6 4.8 0.00 0.03 0.03 45 1010.5
20260507180247 13 95 1.6 4.8 0.00 0.03 0.03 46 1010.5
20260507175742 13 118 0.0 4.8 0.00 0.03 0.03 38 1010.4
20260507175239 14 294 8.0 11.3 0.00 0.03 0.03 42 1010.7
20260507174737 14 276 3.2 6.4 0.00 0.03 0.03 42 1010.5
20260507174235 13 314 3.2 4.8 0.00 0.03 0.03 45 1010.7
20260507173732 13 77 0.0 4.8 0.00 0.03 0.03 43 1010.8
20260507173229 13 164 3.2 4.8 0.00 0.03 0.03 43 1010.8
20260507172725 14 150 3.2 6.4 0.00 0.03 0.03 39 1010.9
20260507172222 13 312 1.6 6.4 0.00 0.03 0.03 46 1011.1
20260507171722 13 316 4.8 6.4 0.00 0.03 0.03 45 1011.4
20260507171220 13 61 1.6 4.8 0.00 0.03 0.03 42 1011.2
20260507170716 13 132 0.0 3.2 0.00 0.03 0.03 46 1011.3
20260507170214 12 109 3.2 4.8 0.00 0.03 0.03 41 1011.5
20260507165709 13 132 4.8 11.3 0.00 0.03 0.03 41 1011.4
20260507165206 13 155 1.6 6.4 0.00 0.03 0.03 42 1011.6
20260507164702 13 289 4.8 6.4 0.00 0.03 0.03 42 1011.4
20260507164159 13 171 3.2 4.8 0.00 0.03 0.03 41 1011.3
20260507163656 12 109 1.6 3.2 0.00 0.03 0.03 45 1011.6
20260507163154 12 88 0.0 3.2 0.00 0.03 0.03 44 1011.6
20260507162649 12 256 1.6 4.8 0.00 0.03 0.03 42 1011.6
20260507162146 12 200 4.8 9.7 0.00 0.03 0.03 43 1011.8
20260507161642 13 131 6.4 9.7 0.00 0.03 0.03 43 1011.8
20260507161139 13 104 0.0 4.8 0.00 0.03 0.03 42 1011.6
20260507160635 13 143 1.6 6.4 0.00 0.03 0.03 44 1011.6
20260507160132 13 104 0.0 1.6 0.00 0.03 0.03 41 1011.7
20260507155627 12 160 3.2 4.8 0.00 0.03 0.03 44 1012.0
20260507155124 12 126 1.6 3.2 0.00 0.03 0.03 47 1012.0
20260507154621 12 147 3.2 4.8 0.00 0.03 0.03 47 1012.0
20260507154119 12 100 1.6 3.2 0.00 0.03 0.03 51 1012.0
20260507153614 11 178 3.2 6.4 0.00 0.03 0.03 51 1011.9
20260507153112 12 158 1.6 3.2 0.00 0.03 0.03 47 1012.3
20260507152608 11 194 1.6 1.6 0.00 0.03 0.03 53 1012.1
20260507152104 10 130 3.2 4.8 0.00 0.03 0.03 50 1011.9
20260507151600 11 146 6.4 6.4 0.00 0.03 0.03 49 1012.2
20260507151057 11 81 0.0 1.6 0.00 0.03 0.03 46 1012.2
20260507150554 11 68 0.0 3.2 0.00 0.03 0.03 49 1012.2
20260507150051 11 115 1.6 3.2 0.00 0.03 0.03 46 1012.2
20260507145545 11 170 1.6 3.2 0.00 0.03 0.03 50 1012.6
20260507145044 11 176 9.7 11.3 0.00 0.03 0.03 50 1012.5
20260507144540 10 124 0.0 3.2 0.00 0.03 0.03 51 1012.7
20260507144038 10 147 4.8 9.7 0.00 0.03 0.03 51 1012.7
20260507143535 10 145 4.8 4.8 0.00 0.03 0.03 54 1012.7
20260507143032 10 89 0.0 1.6 0.00 0.03 0.03 50 1012.7
20260507142527 10 263 3.2 4.8 0.00 0.03 0.03 55 1012.8
20260507142025 9 172 1.6 9.7 0.00 0.03 0.03 54 1012.9
20260507141520 8 130 0.0 4.8 0.00 0.03 0.03 64 1013.0
20260507141017 8 147 1.6 3.2 0.00 0.03 0.03 57 1013.3
20260507140514 8 158 3.2 6.4 0.00 0.03 0.03 56 1013.0
20260507140012 8 129 3.2 4.8 0.00 0.03 0.03 58 1013.2
20260507135508 8 264 6.4 6.4 0.00 0.03 0.03 62 1013.3
20260507135006 8 101 1.6 4.8 0.00 0.03 0.03 61 1013.3
20260507134502 8 267 1.6 3.2 0.00 0.03 0.03 62 1013.5
20260507133958 8 156 4.8 6.4 0.00 0.03 0.03 63 1013.9
20260507133454 8 340 3.2 3.2 0.00 0.03 0.03 59 1013.3
20260507132953 7 117 0.0 0.0 0.00 0.03 0.03 63 1013.6
20260507132448 7 76 0.0 0.0 0.00 0.03 0.03 63 1013.7
20260507131945 7 111 0.0 3.2 0.00 0.03 0.03 62 1013.6
20260507131442 7 136 0.0 3.2 0.00 0.03 0.03 64 1013.9
20260507130939 7 124 0.0 1.6 0.00 0.03 0.03 65 1013.7
20260507130436 7 67 0.0 1.6 0.00 0.03 0.03 67 1013.7
20260507125935 7 197 0.0 4.8 0.00 0.03 0.03 68 1013.7
20260507125433 7 89 0.0 3.2 0.00 0.03 0.03 68 1014.0
20260507124930 7 138 1.6 4.8 0.00 0.03 0.03 67 1014.2
20260507124426 7 168 0.0 3.2 0.00 0.03 0.03 69 1014.0
20260507123924 6 113 0.0 1.6 0.00 0.03 0.03 70 1014.2
20260507123421 6 139 1.6 6.4 0.00 0.03 0.03 68 1014.3
20260507122918 6 132 0.0 3.2 0.00 0.03 0.03 68 1013.9
20260507122413 6 142 1.6 3.2 0.00 0.03 0.03 68 1014.0
20260507121909 6 160 1.6 4.8 0.00 0.03 0.03 68 1014.2
20260507121404 6 105 0.0 1.6 0.00 0.03 0.03 67 1014.0
20260507120901 6 122 0.0 1.6 0.00 0.03 0.03 68 1013.9
20260507120358 5 135 3.2 3.2 0.00 0.03 0.03 71 1013.9
20260507115854 5 120 0.0 0.0 0.00 0.03 0.03 79 1013.9
20260507115350 5 120 0.0 0.0 0.00 0.03 0.03 83 1014.0
20260507114846 5 120 0.0 0.0 0.00 0.03 0.03 87 1013.9
20260507114343 5 120 0.0 0.0 0.00 0.03 0.03 89 1013.9
20260507113840 5 120 0.0 0.0 0.00 0.03 0.03 91 1013.7
20260507113337 5 120 0.0 0.0 0.00 0.03 0.03 92 1013.6
20260507112835 5 120 0.0 1.6 0.00 0.03 0.03 92 1014.0
20260507112332 5 120 0.0 0.0 0.00 0.03 0.03 91 1013.5
20260507111830 5 120 0.0 0.0 0.00 0.03 0.03 90 1013.7
20260507111326 5 120 0.0 0.0 0.00 0.03 0.03 92 1013.6
20260507110822 5 120 0.0 0.0 0.00 0.03 0.03 92 1013.4
20260507110318 5 119 0.0 1.6 0.00 0.03 0.03 91 1013.3
20260507105816 5 120 0.0 0.0 0.00 0.03 0.03 90 1013.3
20260507105312 5 120 0.0 0.0 0.00 0.03 0.03 92 1013.3
20260507104809 5 120 0.0 0.0 0.00 0.03 0.03 92 1013.2
20260507104305 5 120 0.0 1.6 0.00 0.03 0.03 91 1013.0
20260507103802 5 120 0.0 0.0 0.00 0.03 0.03 91 1013.2
20260507103258 5 120 0.0 0.0 0.00 0.03 0.03 91 1013.2
20260507102754 5 120 0.0 0.0 0.00 0.03 0.03 91 1013.2
20260507102251 5 120 0.0 0.0 0.00 0.03 0.03 91 1013.1
20260507101747 5 120 0.0 0.0 0.00 0.03 0.03 91 1013.3
20260507101242 5 120 0.0 0.0 0.00 0.03 0.03 91 1013.0
20260507100740 5 120 0.0 0.0 0.00 0.03 0.03 90 1012.8
20260507100238 5 120 0.0 0.0 0.00 0.03 0.03 88 1013.2
20260507095736 5 120 0.0 0.0 0.00 0.03 0.03 89 1013.0
20260507095232 5 120 0.0 0.0 0.00 0.03 0.03 90 1012.9
20260507094729 5 120 0.0 0.0 0.00 0.03 0.03 89 1012.8
20260507094226 5 120 0.0 0.0 0.00 0.03 0.03 89 1013.0
20260507093723 5 120 0.0 0.0 0.00 0.03 0.03 89 1012.8
20260507093221 5 120 0.0 0.0 0.00 0.03 0.03 88 1013.0
20260507092719 5 120 0.0 1.6 0.00 0.03 0.03 87 1012.8
20260507092215 5 120 0.0 1.6 0.00 0.03 0.03 87 1012.8
20260507091711 5 119 0.0 1.6 0.00 0.03 0.03 86 1012.8
20260507091208 5 119 0.0 0.0 0.00 0.03 0.03 87 1012.6
20260507090703 5 119 0.0 0.0 0.00 0.03 0.03 87 1012.7
20260507090200 5 120 0.0 1.6 0.00 0.03 0.03 89 1013.0
20260507085657 5 121 0.0 0.0 0.00 0.03 0.03 87 1012.9
20260507085154 5 120 0.0 0.0 0.00 0.03 0.03 88 1012.9
20260507084651 5 124 0.0 0.0 0.00 0.03 0.03 90 1012.7
20260507084147 5 124 0.0 0.0 0.00 0.03 0.03 89 1012.9
20260507083644 5 118 0.0 0.0 0.00 0.03 0.03 90 1012.8
20260507083141 5 118 0.0 1.6 0.00 0.03 0.03 90 1012.8
20260507082637 5 112 1.6 1.6 0.00 0.03 0.03 90 1012.8
20260507082134 5 110 0.0 3.2 0.00 0.03 0.03 91 1012.8
20260507081630 5 126 0.0 1.6 0.00 0.03 0.03 91 1012.9
20260507081127 5 127 0.0 0.0 0.00 0.03 0.03 90 1012.9
20260507080623 5 127 0.0 0.0 0.00 0.03 0.03 90 1012.9
20260507080120 5 134 0.0 0.0 0.00 0.03 0.03 90 1012.9
20260507075619 5 135 0.0 0.0 0.00 0.03 0.03 92 1012.7
20260507075116 5 143 0.0 1.6 0.00 0.03 0.03 93 1012.8
20260507074613 5 144 0.0 0.0 0.00 0.03 0.03 93 1013.0
20260507074112 5 144 0.0 0.0 0.00 0.03 0.03 93 1012.9
20260507073607 5 144 0.0 0.0 0.00 0.03 0.03 93 1012.8
20260507073103 6 144 0.0 1.6 0.00 0.03 0.03 93 1012.7
20260507072601 5 144 0.0 1.6 0.00 0.03 0.03 92 1012.7
20260507072058 5 176 3.2 3.2 0.00 0.03 0.03 93 1012.7
20260507071556 6 128 0.0 1.6 0.00 0.03 0.03 94 1012.8
20260507071052 6 128 0.0 0.0 0.00 0.03 0.03 94 1012.7
20260507070549 6 129 0.0 1.6 0.00 0.03 0.03 93 1012.6
20260507070046 6 130 0.0 1.6 0.00 0.03 0.03 94 1012.6
20260507065542 6 127 0.0 0.0 0.00 0.03 0.03 94 1012.6
20260507065040 6 128 0.0 1.6 0.00 0.03 0.03 95 1012.7
20260507064538 6 132 0.0 0.0 0.00 0.03 0.03 95 1012.8
20260507064036 6 133 0.0 1.6 0.00 0.03 0.03 94 1012.6
20260507063533 6 139 0.0 1.6 0.00 0.03 0.03 94 1012.5
20260507063030 6 140 0.0 0.0 0.00 0.03 0.03 94 1012.7
20260507062527 6 140 0.0 1.6 0.00 0.03 0.03 94 1012.6
20260507062024 6 120 1.6 1.6 0.00 0.03 0.03 93 1012.6
20260507061522 6 123 1.6 1.6 0.00 0.03 0.03 93 1012.5
20260507061020 6 133 0.0 1.6 0.00 0.03 0.03 94 1012.6
20260507060517 6 119 0.0 1.6 0.00 0.03 0.03 95 1012.5
20260507060014 6 122 1.6 1.6 0.00 0.03 0.03 96 1012.7
20260507055509 6 113 0.0 1.6 0.00 0.03 0.03 97 1012.8
20260507055005 6 103 0.0 3.2 0.00 0.03 0.03 97 1013.0
20260507054501 7 137 1.6 3.2 0.00 0.03 0.03 98 1012.9
20260507053959 7 133 0.0 0.0 0.00 0.03 0.03 98 1013.2
20260507053457 7 131 1.6 3.2 0.00 0.03 0.03 98 1013.2
20260507052955 7 117 0.0 0.0 0.00 0.03 0.03 98 1013.0
20260507052452 7 117 0.0 1.6 0.00 0.03 0.03 98 1013.3
20260507051949 7 132 1.6 1.6 0.00 0.03 0.03 98 1013.3
20260507051446 7 148 0.0 1.6 0.00 0.03 0.03 98 1013.1
20260507050943 7 118 0.0 0.0 0.00 0.03 0.03 98 1013.1
20260507050439 7 120 0.0 1.6 0.00 0.03 0.03 98 1013.1
20260507045937 7 127 0.0 1.6 0.00 0.03 0.03 98 1012.9
20260507045433 7 114 0.0 3.2 0.18 0.03 0.03 98 1013.1
20260507044930 7 121 1.6 1.6 0.18 0.03 0.03 98 1013.0
20260507044427 7 131 0.0 0.0 0.00 0.00 0.00 98 1013.1
20260507043923 7 131 0.0 3.2 0.00 0.00 0.00 98 1013.2
20260507043419 7 132 1.6 1.6 0.00 0.00 0.00 98 1012.9
20260507042916 7 121 0.0 0.0 0.00 0.00 0.00 98 1012.9
20260507042413 7 147 1.6 1.6 0.00 0.00 0.00 98 1013.2
20260507041908 7 128 0.0 0.0 0.00 0.00 0.00 98 1013.0
20260507041405 7 128 0.0 1.6 0.00 0.00 0.00 98 1012.6
20260507040903 7 125 1.6 1.6 0.00 0.00 0.00 98 1012.7
20260507040358 7 127 0.0 1.6 0.00 0.00 0.00 98 1012.8
20260507035854 7 128 1.6 1.6 0.00 0.71 0.71 98 1012.8
20260507035350 7 130 0.0 0.0 0.00 0.71 0.71 98 1012.9
20260507034848 7 130 0.0 1.6 0.00 0.71 0.71 98 1012.8
20260507034344 7 122 1.6 1.6 0.00 0.71 0.71 98 1012.8
20260507033843 7 119 0.0 0.0 0.00 0.71 0.71 98 1012.9
20260507033340 7 118 0.0 0.0 0.00 0.71 0.71 98 1013.0
20260507032837 7 118 0.0 0.0 0.00 0.71 0.71 98 1013.2
20260507032333 7 127 0.0 1.6 0.00 0.71 0.71 98 1013.2
20260507031830 7 129 0.0 1.6 0.00 0.71 0.71 98 1013.4
20260507031327 7 133 0.0 1.6 0.00 0.71 0.71 98 1013.3
20260507030823 7 116 0.0 0.0 0.00 0.71 0.71 98 1012.9
20260507030321 7 116 0.0 0.0 0.18 0.71 0.71 97 1013.0
20260507025817 7 144 0.0 1.6 0.18 0.71 0.71 98 1013.0
20260507025315 7 129 0.0 0.0 0.00 0.69 0.69 98 1013.0
20260507024813 7 129 0.0 0.0 0.00 0.69 0.69 97 1012.8
20260507024310 7 129 0.0 0.0 0.00 0.69 0.69 97 1012.8
20260507023805 7 132 0.0 1.6 0.00 0.69 0.69 98 1012.8
20260507023302 7 131 1.6 1.6 0.00 0.69 0.69 97 1012.8
20260507022800 7 124 0.0 0.0 0.00 0.69 0.69 97 1013.0
20260507022256 7 124 0.0 1.6 0.00 0.69 0.69 97 1012.6
20260507021752 7 123 0.0 0.0 0.00 0.69 0.69 97 1012.6
20260507021248 7 123 0.0 0.0 0.00 0.69 0.69 97 1012.6
20260507020746 7 123 0.0 0.0 0.00 0.69 0.69 97 1012.7
20260507020242 7 123 0.0 0.0 0.00 0.69 0.69 97 1012.7
20260507015740 7 123 0.0 0.0 0.00 0.69 0.69 97 1012.3
20260507015237 7 123 0.0 0.0 0.00 0.69 0.69 97 1012.5
20260507014733 7 123 0.0 0.0 0.00 0.69 0.69 97 1012.5
20260507014230 7 125 0.0 0.0 0.00 0.69 0.69 97 1012.3
20260507013727 7 125 0.0 0.0 0.00 0.69 0.69 97 1012.3
20260507013224 7 125 0.0 1.6 0.00 0.69 0.69 97 1012.6
20260507012721 7 125 1.6 1.6 0.00 0.69 0.69 97 1012.5
20260507012217 7 124 0.0 1.6 0.00 0.69 0.69 96 1011.9
20260507011715 7 118 1.6 1.6 0.00 0.69 0.69 96 1011.7
20260507011211 7 128 1.6 1.6 0.00 0.69 0.69 96 1012.0
20260507010710 7 130 0.0 1.6 0.00 0.69 0.69 96 1012.2
20260507010206 7 155 0.0 3.2 0.00 0.69 0.69 96 1012.0
20260507005704 7 137 0.0 1.6 0.00 0.69 0.69 96 1012.0
20260507005200 7 129 1.6 1.6 0.00 0.69 0.69 96 1012.2
20260507004657 7 149 0.0 3.2 0.00 0.69 0.69 95 1012.2
20260507004154 7 80 1.6 3.2 0.00 0.69 0.69 96 1012.1
20260507003651 7 153 1.6 3.2 0.00 0.69 0.69 96 1012.2
20260507003151 7 148 3.2 6.4 0.00 0.69 0.69 96 1012.3
20260507002648 7 126 3.2 3.2 0.00 0.69 0.69 96 1012.1
20260507002143 7 127 3.2 3.2 0.00 0.69 0.69 96 1011.9
20260507001640 7 126 1.6 3.2 0.00 0.69 0.69 97 1012.1
20260507001138 7 141 1.6 1.6 0.00 0.69 0.69 97 1012.8
20260507000634 7 117 0.0 3.2 0.00 0.69 0.69 97 1012.7
20260507000129 7 94 0.0 3.2 0.00 0.69 0.69 97 1012.5
20260506235627 8 141 1.6 3.2 0.00 0.69 0.69 97 1012.5
20260506235127 8 164 3.2 4.8 0.00 0.69 0.69 97 1012.3
20260506234625 8 142 1.6 4.8 0.00 0.69 0.69 97 1012.2
20260506234122 8 157 3.2 3.2 0.00 0.69 0.69 97 1012.1
20260506233619 8 132 1.6 3.2 0.00 0.69 0.69 97 1012.1
20260506233116 8 106 1.6 1.6 0.00 0.69 0.69 97 1012.2
20260506232612 8 137 0.0 1.6 0.00 0.69 0.69 97 1011.9
20260506232107 8 167 0.0 3.2 0.00 0.69 0.69 97 1012.0
20260506231605 8 123 0.0 4.8 0.00 0.69 0.69 98 1012.1
20260506231103 8 130 1.6 3.2 0.00 0.69 0.69 98 1012.0
20260506230559 8 127 1.6 3.2 0.00 0.69 0.69 98 1011.8
20260506230056 8 115 1.6 1.6 0.00 0.69 0.69 98 1011.8
20260506225553 8 79 3.2 6.4 0.00 0.69 0.69 98 1011.7
20260506225049 8 123 0.0 1.6 0.00 0.69 0.69 98 1011.6
20260506224546 8 133 0.0 1.6 0.00 0.69 0.69 98 1011.4
20260506224043 8 140 0.0 1.6 0.00 0.69 0.69 98 1011.4
20260506223539 8 131 0.0 0.0 0.00 0.69 0.69 98 1011.6
20260506223036 8 126 0.0 1.6 0.00 0.69 0.69 98 1011.4
20260506222532 8 139 3.2 4.8 0.00 0.69 0.69 98 1011.4
20260506222029 8 137 1.6 3.2 0.00 0.69 0.69 98 1011.5
20260506221526 8 127 1.6 3.2 0.00 0.69 0.69 98 1011.4
20260506221024 8 118 0.0 6.4 0.00 0.69 0.69 98 1011.6
20260506220520 8 120 0.0 1.6 0.00 0.69 0.69 98 1011.4
20260506220016 8 116 0.0 1.6 0.00 0.69 0.69 98 1011.7
20260506215513 8 121 4.8 9.7 0.00 0.69 0.69 98 1011.5
20260506215008 8 118 1.6 1.6 0.00 0.69 0.69 98 1011.4
20260506214506 8 115 3.2 4.8 0.00 0.69 0.69 98 1011.1
20260506214003 8 123 0.0 3.2 0.00 0.69 0.69 97 1011.3
20260506213501 8 126 0.0 1.6 0.00 0.69 0.69 98 1011.4
20260506212957 8 126 0.0 3.2 0.00 0.69 0.69 97 1010.9
20260506212453 9 122 0.0 0.0 0.00 0.69 0.69 97 1011.1
20260506211948 8 125 3.2 3.2 0.00 0.69 0.69 97 1010.8